ONDOSAT-OWL-4

operational
NORAD ID: 62405 Int'l Des: 2024-247 Owner: ONDO Country: MN
LEOCIRCULAR

关于 ONDOSAT-OWL-4

正在加载描述...

实时位置

正在加载3D地球...

即将过境

高度历史

Altitude vs Time

uPlot chart will show altitude changes over time

两行轨道根数

1 62405U 24247AE 25340.91509491 .00047975 00000-0 11798-2 0 9998
2 62405 44.9810 243.2965 0008729 153.5314 206.6021 15.39922132 53196
Epoch: Dec 6, 2025 • Age: 17 hours

当前状态

高度 449.2 km
速度 7.65 km/s
星下点 36.62°N, 19.72°W
发射日期 Dec 21, 2024
运行时间 0.9 years
类型 other

技术详情

分类 Payload
质量 0.25 kg
干质量 0.25 kg
总质量 0.25 kg
长度 0.05 m
直径 0.05 m
跨度 0.05 m
形状 Box
制造商 ONDO
平台类型 Cubesat 0.5U
阶段状态 In Orbit
所有者/国家 ONDO/MN

大型星座

Loading constellations...